TimeMST,TemperatureF,Dew PointF,Humidity,Sea Level PressureIn,VisibilityMPH,Wind Direction,Wind SpeedMPH,Gust SpeedMPH,PrecipitationIn,Events,Conditions,WindDirDegrees,DateUTC
12:56 AM,66.0,41.0,40,30.01,10.0,SW,8.1,-,N/A,,Clear,230,2011-10-22 07:56:00
1:56 AM,60.8,42.8,52,30.19,10.0,West,5.8,-,N/A,,Clear,270,2011-10-22 08:56:00
2:56 AM,62.6,42.8,48,30.18,10.0,WSW,8.1,-,N/A,,Clear,250,2011-10-22 09:56:00
3:56 AM,62.1,43.0,50,30.01,10.0,West,5.8,-,N/A,,Clear,260,2011-10-22 10:56:00
4:56 AM,60.1,42.1,51,30.02,10.0,SSW,6.9,-,N/A,,Clear,210,2011-10-22 11:56:00
5:56 AM,59.0,41.0,51,30.04,10.0,SW,3.5,-,N/A,,Clear,220,2011-10-22 12:56:00
6:56 AM,61.0,39.9,46,30.05,10.0,WSW,5.8,-,N/A,,Clear,240,2011-10-22 13:56:00
7:56 AM,69.1,37.9,32,30.06,10.0,Calm,Calm,-,N/A,,Clear,0,2011-10-22 14:56:00
8:56 AM,72.0,37.0,28,30.06,10.0,Calm,Calm,-,N/A,,Clear,0,2011-10-22 15:56:00
9:56 AM,75.9,36.0,23,30.05,10.0,Variable,5.8,-,N/A,,Clear,0,2011-10-22 16:56:00
10:56 AM,78.1,36.0,22,30.04,10.0,ESE,6.9,-,N/A,,Clear,120,2011-10-22 17:56:00
11:56 AM,79.0,37.0,22,30.01,10.0,Calm,Calm,-,N/A,,Clear,0,2011-10-22 18:56:00
12:56 PM,80.1,37.0,21,29.98,10.0,Variable,4.6,-,N/A,,Clear,0,2011-10-22 19:56:00
1:56 PM,82.0,37.0,20,29.96,10.0,West,5.8,-,N/A,,Clear,260,2011-10-22 20:56:00
2:56 PM,82.0,36.0,19,29.95,10.0,Calm,Calm,-,N/A,,Clear,0,2011-10-22 21:56:00
3:56 PM,82.0,33.1,17,29.94,10.0,NNW,8.1,-,N/A,,Clear,340,2011-10-22 22:56:00
4:56 PM,79.0,34.0,20,29.94,10.0,NNE,8.1,-,N/A,,Clear,20,2011-10-22 23:56:00
5:56 PM,73.9,34.0,23,29.97,10.0,North,4.6,-,N/A,,Clear,10,2011-10-23 00:56:00
6:56 PM,69.1,33.1,26,29.99,10.0,West,9.2,-,N/A,,Clear,270,2011-10-23 01:56:00
7:56 PM,69.1,33.1,26,29.98,10.0,SW,9.2,-,N/A,,Clear,230,2011-10-23 02:56:00
8:56 PM,68.0,33.1,27,29.98,10.0,SW,9.2,-,N/A,,Clear,220,2011-10-23 03:56:00
9:56 PM,-9999,-9999,N/A,-9999,-9999.0,North,-9999.0,-,N/A,,Unknown,0,2011-10-23 04:56:00
10:15 PM,69.8,50.0,49,-9999,-9999.0,North,-9999.0,-,N/A,,Unknown,0,2011-10-23 05:15:00
10:56 PM,64.9,33.1,31,29.99,10.0,WSW,6.9,-,N/A,,Clear,240,2011-10-23 05:56:00
11:56 PM,63.0,34.0,34,29.99,10.0,SW,3.5,-,N/A,,Clear,220,2011-10-23 06:56:00